This is the latest recevied weather packets stored in our database for station/object KF0ZH. If no packets are shown the sender has not sent any weather packets the latest 10 day(s).
| Time | Temp. | Humidity | Pressure | Rain* | Wind** | Luminosity | Snow |
|---|---|---|---|---|---|---|---|
| 1778005917 | 9.44° C | 54% | 1009.7 hPa | 0 mm | 2.24 m/s, 272° | - | - |
| 1778005618 | 10° C | 52% | 1009.8 hPa | 0 mm | 5.36 m/s, 305° | - | - |
| 1778005321 | 10° C | 52% | 1009.8 hPa | 0 mm | 1.34 m/s, 358° | - | - |
| 1778005024 | 9.44° C | 54% | 1009.8 hPa | 0 mm | 0 m/s | - | - |
| 1778004718 | 9.44° C | 52% | 1009.8 hPa | 0 mm | 3.13 m/s, 285° | - | - |
| 1778004416 | 10° C | 52% | 1009.8 hPa | 0 mm | 2.24 m/s, 277° | - | - |
| 1778004116 | 9.44° C | 53% | 1009.8 hPa | 0 mm | 0 m/s | - | - |
| 1778003517 | 9.44° C | 53% | 1009.8 hPa | 0 mm | 4.02 m/s, 337° | - | - |
| 1778002917 | 9.44° C | 53% | 1009.8 hPa | 0 mm | 2.24 m/s, 4° | - | - |
| 1778002617 | 9.44° C | 52% | 1009.8 hPa | 0 mm | 2.68 m/s, 329° | - | - |
| 1778002017 | 8.89° C | 55% | 1009.9 hPa | 0 mm | 0.89 m/s, 258° | - | - |
| 1778001718 | 8.89° C | 53% | 1009.9 hPa | 0 mm | 0 m/s | - | - |
| 1778001418 | 8.89° C | 53% | 1010 hPa | 0 mm | 1.79 m/s, 299° | - | - |
| 1778001116 | 8.89° C | 52% | 1009.9 hPa | 0 mm | 3.13 m/s, 319° | - | - |
| 1778000819 | 8.89° C | 53% | 1010 hPa | 0 mm | 0 m/s | - | - |
| 1778000517 | 8.89° C | 52% | 1010 hPa | 0 mm | 3.58 m/s, 323° | - | - |
| 1778000216 | 8.89° C | 52% | 1010 hPa | 0 mm | 2.24 m/s, 291° | - | - |
| 1777999917 | 8.33° C | 54% | 1010 hPa | 0 mm | 2.68 m/s, 300° | - | - |
| 1777999616 | 8.33° C | 54% | 1010 hPa | 0 mm | 0 m/s | - | - |
| 1777999016 | 8.33° C | 54% | 1010 hPa | 0 mm | 1.34 m/s, 258° | - | - |
| 1777998716 | 8.33° C | 54% | 1010 hPa | 0 mm | 2.68 m/s, 237° | - | - |
| 1777998418 | 8.33° C | 56% | 1010 hPa | 0 mm | 0 m/s | - | - |
| 1777998118 | 7.78° C | 56% | 1010.1 hPa | 0 mm | 0 m/s | - | - |
| 1777997817 | 7.78° C | 55% | 1010.1 hPa | 0 mm | 4.02 m/s, 331° | - | - |
| 1777997516 | 8.33° C | 55% | 1010.1 hPa | 0 mm | 1.79 m/s, 243° | - | - |
* Rain latest hour (hover to see other rain measurements)
** Current wind speed in m/s (hover to see current wind gust speed)